Starlink 32558

operational
NORAD ID: 62169 Int'l Des: 2024-225 Owner: SPXS Country: US Constellation: starlink
LEOCIRCULAR

Über Starlink 32558

Beschreibung wird geladen...

Live-Position

3D-Globus wird geladen...

Nächste Überflüge

Höhenverlauf

Altitude vs Time

uPlot chart will show altitude changes over time

Zweizeiliger Elementsatz

1 62169U 24225G 26035.04276649 -.00500883 00000-0 -45466-1 0 9995
2 62169 69.9994 249.3456 0005517 231.9168 128.1494 14.97550079 64830
Epoch: 4. Feb. 2026 • Age: 13 hours

Aktueller Status

Höhe 581.8 km
Geschwindigkeit 7.57 km/s
Subsatellitenpunkt -6.75°S, 96.52°W
Startdatum 30. Nov. 2024
Alter 1.1 years
Typ internet

Technische Details

Klassifizierung Payload
Masse 730.00 kg
Trockenmasse 700.00 kg
Gesamtmasse 730.00 kg
Länge 0.30 m
Durchmesser 4.10 m
Spannweite 29.00 m
Form Box + pan
Hersteller SPXS
Bus-Typ Starlink V2M
Phasenstatus In Orbit
Besitzer/Staat SPXS/US

Große Konstellationen

Loading constellations...